Waarnemingen

Advertentie
Mijn weer
Huesca, Spanje (8094): temperatuur & dauwpunt: 17.11.2017 12:00:00 - 23.11.2017 12:00:00 (CET)Huesca, Spanje (8094): windsnelheid: 17.11.2017 12:00:00 - 23.11.2017 12:00:00 (CET)Huesca, Spanje (8094): windrichting: 17.11.2017 12:00:00 - 23.11.2017 12:00:00 (CET)Huesca, Spanje (8094): luchtdruk: 17.11.2017 12:00:00 - 23.11.2017 12:00:00 (CET)Huesca, Spanje (8094): zicht: 17.11.2017 12:00:00 - 23.11.2017 12:00:00 (CET)Huesca, Spanje (8094): neerslag: 17.11.2017 12:00:00 - 23.11.2017 12:00:00 (CET)
Datum & Tijd tt [°C] td [°C] ff [km/u] ff [kn] dd ppp [hPa] vv [km] rr [mm]
23.11.2017 12:00:00 - - - - - - - -
23.11.2017 11:00:00 11,5 1,4 9 5 ZO 1018,9 - 0,0
23.11.2017 10:00:00 8,2 0,7 8 4 OZO 1018,9 15 -
23.11.2017 09:00:00 7,2 0,4 8 4 OZO 1018,4 - 0,0
23.11.2017 08:00:00 7,9 0,6 9 5 O 1017,4 - 0,0
23.11.2017 07:00:00 6,8 0,7 9 5 O 1017,3 - -
23.11.2017 06:00:00 6,4 0,9 5 3 O 1017,4 - 0,0
23.11.2017 05:00:00 6,5 1,4 5 3 ONO 1017,1 - 0,0
23.11.2017 04:00:00 6,7 1,6 5 3 ONO 1016,8 - -
23.11.2017 03:00:00 7,4 1,9 8 4 O 1016,5 - 0,0
23.11.2017 02:00:00 7,2 0,8 11 6 O 1016,2 - 0,0
23.11.2017 01:00:00 6,6 0,1 13 7 O 1016,2 - -
23.11.2017 00:00:00 6,4 0,5 9 5 O 1016,7 - 0,0
22.11.2017 23:00:00 6,9 0,8 16 9 OZO 1016,1 - 0,0
22.11.2017 22:00:00 7,1 1,0 8 4 OZO 1016,3 - -
22.11.2017 21:00:00 7,2 1,3 9 5 O 1015,8 - 0,0
22.11.2017 20:00:00 8,0 2,2 11 6 O 1015,4 - 0,0
22.11.2017 19:00:00 8,8 2,4 13 7 O 1014,9 - -
22.11.2017 18:00:00 10,4 1,2 11 6 OZO 1014,4 - 0,0
22.11.2017 17:00:00 13,0 1,3 9 5 ZO 1014,3 - 0,0
22.11.2017 16:00:00 14,4 2,6 5 3 ZO 1014,1 15 -
22.11.2017 15:00:00 15,3 1,4 5 3 ZO 1014,2 - 0,0
22.11.2017 14:00:00 15,6 1,3 4 2 ZZO 1014,7 - 0,0
22.11.2017 13:00:00 14,8 2,0 8 4 ZO 1015,3 25 -
22.11.2017 12:00:00 13,3 1,9 11 6 OZO 1016,3 - 0,0
22.11.2017 11:00:00 11,1 3,1 5 3 ZO 1017,6 - 0,0
22.11.2017 10:00:00 7,4 2,5 4 2 WZW 1018,6 20 -
22.11.2017 09:00:00 5,4 2,2 4 2 ZZW 1018,7 - 0,0
22.11.2017 08:00:00 4,6 2,0 2 1 NNW 1018,5 - 0,0
22.11.2017 07:00:00 4,7 2,1 4 2 WZW 1018,7 - -
22.11.2017 06:00:00 5,0 1,8 2 1 NNW 1018,8 - 0,0
22.11.2017 05:00:00 6,5 2,4 5 3 ZW 1019,0 - 0,0
22.11.2017 04:00:00 7,3 1,4 9 5 ONO 1019,0 - -
22.11.2017 03:00:00 5,0 1,8 5 3 NNO 1020,4 - 0,0
22.11.2017 02:00:00 5,5 2,1 5 3 NO 1020,7 - 0,0
22.11.2017 01:00:00 5,0 1,7 5 3 O 1021,4 - -
22.11.2017 00:00:00 5,9 1,4 4 2 O 1021,4 - 0,0
21.11.2017 23:00:00 7,0 1,5 8 4 O 1021,0 - 0,0
21.11.2017 22:00:00 7,6 1,6 8 4 NO 1021,0 - -
21.11.2017 21:00:00 7,3 1,1 8 4 ONO 1021,3 - 0,0
21.11.2017 20:00:00 7,4 0,6 5 3 NO 1021,5 - 0,0
21.11.2017 19:00:00 9,0 0,4 2 1 ZZW 1021,1 - -
21.11.2017 18:00:00 10,6 0,6 4 2 W 1020,5 - 0,0
21.11.2017 17:00:00 13,1 1,1 5 3 WZW 1019,9 - 0,0
21.11.2017 16:00:00 14,2 2,1 5 3 WZW 1019,8 20 -
21.11.2017 15:00:00 14,5 2,1 5 3 WZW 1020,1 - 0,0
21.11.2017 14:00:00 14,6 2,8 5 3 WZW 1020,8 - 0,0
21.11.2017 13:00:00 13,6 2,5 5 3 WZW 1021,5 25 -
21.11.2017 12:00:00 12,1 2,8 4 2 WZW 1022,7 - 0,0
21.11.2017 11:00:00 10,2 3,0 5 3 WZW 1023,4 - 0,0
21.11.2017 10:00:00 8,2 2,2 4 2 NW 1023,8 25 -
21.11.2017 09:00:00 6,2 1,9 5 3 WNW 1024,2 - 0,0
21.11.2017 08:00:00 4,7 1,7 5 3 NW 1024,1 - 0,0
21.11.2017 07:00:00 3,5 1,0 4 2 WNW 1024,1 - -
21.11.2017 06:00:00 4,5 1,5 4 2 WZW 1023,7 - 0,0
21.11.2017 05:00:00 3,8 1,3 2 1 N 1023,8 - 0,0
21.11.2017 04:00:00 3,9 1,6 4 2 NO 1024,0 - -
21.11.2017 03:00:00 4,2 1,9 0 0 N 1024,5 - 0,0
21.11.2017 02:00:00 4,7 1,5 2 1 WZW 1024,6 - 0,0
21.11.2017 01:00:00 5,4 1,7 2 1 NNO 1024,6 - -
21.11.2017 00:00:00 5,7 1,8 5 3 ONO 1024,6 - 0,0
20.11.2017 23:00:00 5,5 1,8 5 3 NO 1024,7 - 0,0
20.11.2017 22:00:00 6,1 1,6 5 3 ONO 1024,7 - -
20.11.2017 21:00:00 6,7 1,4 5 3 O 1024,4 - 0,0
20.11.2017 20:00:00 7,1 0,1 5 3 ONO 1024,0 - 0,0
20.11.2017 19:00:00 8,5 -0,3 2 1 WZW 1023,2 - -
20.11.2017 18:00:00 10,0 -0,5 4 2 ZZW 1022,6 - 0,0
20.11.2017 17:00:00 12,4 0,5 4 2 W 1021,8 - 0,0
20.11.2017 16:00:00 13,4 0,4 5 3 WZW 1021,7 25 -
20.11.2017 15:00:00 13,7 0,7 5 3 WZW 1021,8 - 0,0
20.11.2017 14:00:00 13,5 0,8 5 3 W 1022,5 - 0,0
20.11.2017 13:00:00 12,3 2,2 8 4 WZW 1023,4 25 -
20.11.2017 12:00:00 11,2 3,7 4 2 W 1024,4 - 0,0
20.11.2017 11:00:00 8,8 3,6 4 2 W 1025,2 - 0,0
20.11.2017 10:00:00 5,9 2,4 4 2 NNW 1025,3 25 -
20.11.2017 09:00:00 3,5 1,9 2 1 NW 1025,4 - 0,0
20.11.2017 08:00:00 2,7 0,9 4 2 ONO 1025,3 - 0,0
20.11.2017 07:00:00 3,0 0,1 8 4 O 1025,3 - -
20.11.2017 06:00:00 3,4 0,4 5 3 O 1025,0 - 0,0
20.11.2017 05:00:00 3,8 1,0 4 2 NO 1024,4 - 0,0
20.11.2017 04:00:00 4,4 1,4 5 3 NO 1024,3 - -
20.11.2017 03:00:00 4,4 1,2 5 3 ONO 1024,4 - 0,0
20.11.2017 02:00:00 4,8 1,1 8 4 ONO 1024,7 - 0,0
20.11.2017 01:00:00 5,6 1,1 8 4 O 1024,5 - -
20.11.2017 00:00:00 4,8 1,5 5 3 ONO 1024,7 - 0,0
19.11.2017 23:00:00 4,9 1,4 4 2 ONO 1024,3 - 0,0
19.11.2017 22:00:00 5,3 1,0 5 3 O 1024,2 - -
19.11.2017 21:00:00 6,2 1,7 5 3 ZZW 1023,6 - 0,0
19.11.2017 20:00:00 6,2 1,3 5 3 NO 1023,2 - 0,0
19.11.2017 19:00:00 7,5 1,8 4 2 WZW 1022,8 - -
19.11.2017 18:00:00 8,6 1,5 4 2 WZW 1022,0 - 0,0
19.11.2017 17:00:00 10,8 1,3 5 3 WZW 1021,3 - 0,0
19.11.2017 16:00:00 11,7 0,4 9 5 WZW 1020,9 25 -
19.11.2017 15:00:00 12,0 1,0 8 4 W 1020,8 - 0,0
19.11.2017 14:00:00 11,9 3,6 5 3 W 1021,2 - 0,0
19.11.2017 13:00:00 10,5 4,0 4 2 W 1022,3 25 -
19.11.2017 12:00:00 8,7 3,9 4 2 W 1023,2 - 0,0
19.11.2017 11:00:00 6,4 3,2 5 3 W 1023,9 - 0,0
19.11.2017 10:00:00 4,8 2,5 4 2 W 1024,0 30 -
19.11.2017 09:00:00 2,9 1,7 4 2 W 1024,1 - 0,0
19.11.2017 08:00:00 2,4 1,2 4 2 ZW 1023,9 - 0,0
19.11.2017 07:00:00 3,7 1,9 5 3 NNW 1022,8 - -
19.11.2017 06:00:00 4,0 2,0 4 2 W 1022,9 - 0,0
19.11.2017 05:00:00 4,6 2,3 5 3 NW 1022,9 - 0,0
19.11.2017 04:00:00 4,6 2,3 5 3 NW 1023,0 - -
19.11.2017 03:00:00 5,3 2,6 8 4 ONO 1022,7 - 0,0
19.11.2017 02:00:00 4,7 2,6 5 3 ONO 1023,1 - 0,0
19.11.2017 01:00:00 4,2 2,2 8 4 O 1023,2 - -
19.11.2017 00:00:00 4,6 2,5 8 4 O 1023,4 - 0,0
18.11.2017 23:00:00 5,3 2,8 5 3 ONO 1023,2 - 0,0
18.11.2017 22:00:00 5,9 2,7 5 3 O 1023,1 - -
18.11.2017 21:00:00 6,0 2,6 5 3 ONO 1022,7 - 0,0
18.11.2017 20:00:00 7,9 3,0 5 3 OZO 1022,0 - 0,0
18.11.2017 19:00:00 9,6 4,0 4 2 WZW 1021,0 - -
18.11.2017 18:00:00 11,5 3,5 4 2 WZW 1020,2 - 0,0
18.11.2017 17:00:00 13,8 3,5 4 2 WZW 1019,3 - 0,0
18.11.2017 16:00:00 14,5 3,3 5 3 W 1019,0 25 -
18.11.2017 15:00:00 14,4 3,5 5 3 W 1019,2 - 0,0
18.11.2017 14:00:00 14,0 3,4 8 4 WZW 1019,8 - 0,0
18.11.2017 13:00:00 12,8 3,2 5 3 ZZW 1020,5 25 -
18.11.2017 12:00:00 11,3 3,1 5 3 WZW 1021,3 - 0,0
18.11.2017 11:00:00 10,2 3,0 5 3 ZZO 1021,4 - 0,0
18.11.2017 10:00:00 6,2 2,3 4 2 Z 1022,1 25 -
18.11.2017 09:00:00 4,5 2,2 2 1 OZO 1022,0 - 0,0
18.11.2017 08:00:00 4,2 1,2 5 3 NW 1021,6 - 0,0
18.11.2017 07:00:00 4,8 1,1 5 3 WNW 1021,3 - -
18.11.2017 06:00:00 4,7 0,8 5 3 NW 1021,2 - 0,0
18.11.2017 05:00:00 3,8 0,3 5 3 O 1021,3 - 0,0
18.11.2017 04:00:00 4,4 0,5 5 3 O 1021,3 - -
18.11.2017 03:00:00 4,7 0,5 4 2 NO 1021,4 - 0,0
18.11.2017 02:00:00 4,9 0,5 5 3 ONO 1021,3 - 0,0
18.11.2017 01:00:00 5,4 0,6 5 3 O 1021,5 - -
18.11.2017 00:00:00 5,6 0,8 4 2 Z 1021,8 - 0,0
17.11.2017 23:00:00 6,1 0,6 2 1 NNO 1021,6 - 0,0
17.11.2017 22:00:00 6,5 0,8 4 2 O 1021,0 - -
17.11.2017 21:00:00 7,1 0,7 5 3 O 1020,8 - 0,0
17.11.2017 20:00:00 8,1 0,8 4 2 Z 1020,4 - 0,0
17.11.2017 19:00:00 9,4 0,8 4 2 W 1020,0 - -
17.11.2017 18:00:00 10,9 0,6 4 2 W 1019,3 - 0,0
17.11.2017 17:00:00 13,3 1,3 4 2 WZW 1018,8 - 0,0
17.11.2017 16:00:00 14,0 0,9 5 3 WNW 1018,8 23 -
17.11.2017 15:00:00 13,9 0,8 5 3 W 1019,0 - 0,0
17.11.2017 14:00:00 13,7 0,7 5 3 W 1019,5 - 0,0
17.11.2017 13:00:00 12,3 0,7 4 2 W 1020,6 25 -
17.11.2017 12:00:00 11,1 0,8 4 2 Z 1021,4 - 0,0

tt = temperatuur
td = dauwpunt
ff = windsnelheid
dd = windrichting
ppp = luchtdruk
vv = zicht
rr = neerslag

Weerstations in de omgeving